Regional Weather Roundup
Issued by NWS

Home | Current Version | Previous Version | Graphics & Text | Print | Product List | Glossary On
Versions: 1 2 3 4 5 6 7 8 9 10 11 12 13 14 15 16 17 18 19 20 21 22 23 24 25 26 27 28 29 30 31 32 33 34 35 36 37 38 39 40 41 42 43 44 45 46 47 48 49 50
000
ASUS43 KFSD 011410
RWRSD

WEATHER ROUNDUP FOR SOUTH DAKOTA
NATIONAL WEATHER SERVICE SIOUX FALLS SD
900 AM CDT WED JUL 01 2015

NOTE: "FAIR" INDICATES FEW OR NO CLOUDS BELOW 12,000 FEET WITH NO
SIGNIFICANT WEATHER AND/OR OBSTRUCTIONS TO VISIBILITY.


SDZ001>005-009-010-012>017-011500-
NORTHWEST AND NORTH CENTRAL SOUTH DAKOTA

CITY           SKY/WX    TMP DP  RH WIND       PRES   REMARKS
BUFFALO          N/A     69  59  70 NW18      29.90S
FAITH            N/A     63  62  97 CALM      29.93R
MOBRIDGE       CLOUDY    69  67  93 E9        29.89S FOG
$$

SDZ012>016-024>037-041>051-057-063-072>074-011500-
SOUTHWEST AND SOUTH CENTRAL SOUTH DAKOTA

CITY           SKY/WX    TMP DP  RH WIND       PRES   REMARKS
RAPID CTY ARPT SUNNY     77  61  57 NW9       29.96R
PIERRE         MOSUNNY   70  65  84 E7        29.87R
CUSTER         SUNNY     71  50  47 N8        30.13S
ELLSWORTH AFB  SUNNY     77  58  52 N13       29.96R
PHILIP         MOSUNNY   70  64  81 N3        29.91R
PINE RIDGE     SUNNY     71  65  81 W6        29.99R
SPEARFISH      FAIR      73  57  56 NW14      30.05R
WINNER         FAIR      70  62  76 SE8       29.88S
$$

SDZ004>011-016>023-039-040-011500-
NORTHEAST SOUTH DAKOTA

CITY           SKY/WX    TMP DP  RH WIND       PRES   REMARKS
ABERDEEN       CLOUDY    67  63  87 E9        29.93R FOG
WATERTOWN      CLOUDY    64  60  87 E7        29.94R
BROOKINGS      CLOUDY    63  59  88 SE14      29.95S
SISSETON         N/A     64  62  93 SE8       29.94S
$$

SDZ017-020-022-023-036>040-048>070-011500-
SOUTHEAST SOUTH DAKOTA

CITY           SKY/WX    TMP DP  RH WIND       PRES   REMARKS
SIOUX FALLS    LGT RAIN  64  62  93 E9        29.93F FOG
HURON          PTSUNNY   67  65  93 SE7       29.89S FOG
CHAMBERLAIN    SUNNY     69  64  83 SE6       29.89R
MITCHELL       CLOUDY    69  67  93 E10       29.90S FOG
YANKTON        PTSUNNY   66  63  88 NE9       29.88F
$$

ABBREVIATIONS USED IN REMARKS
   TC - TEMPERATURE IN CELSIUS
  WCI - WIND CHILL INDEX
   HX - HEAT INDEX
  VSB - VISIBILITY




USA.gov is the U.S. government's official web portal to all federal, state and local government web resources and services.